sat.trackr.live / text

‹ back to catalog

QIANFAN-22

NORAD 61555 · 2024-185D

PAYLOAD ACTIVE UNKNOWN

§ Identity

Operator
Country
PRC
Launch date
2024-10-15
Launch site
TAISC
Launch vehicle
Mass (kg)
RCS (m²)

External: N2YO · Heavens-Above · Gunter

§ Orbital elements

Epoch: 2026-05-25T03:01:03.967104Z

Period
103.87 min
Inclination
88.9832°
Eccentricity
0.0004960
Mean motion
13.86381942 rev/d
Perigee alt
937.7 km
Apogee alt
945.0 km
Semi-major
7,319.5 km
B*
1.2401e-4
RAAN
61.3331°
Arg perigee
198.6414°
Mean anomaly
161.4576°
Rev number
9,157

§ Raw data

QIANFAN-221 61555U 24185D   26145.12574036  .00000157  00000+0  12401-3 0  99912 61555  88.9832  61.3331 0004960 198.6414 161.4576 13.86381942 91578

JSON: /api/v1/satellites/61555 · /tle

For live sub-satellite position, see the globe view (requires WebGL).

§ Visibility from observer

Set your observer location to see the next 7 days of passes ≥ 10°. The values pass through the URL so the page stays shareable.

No JS? Fill the form by hand. The geolocation button needs JavaScript.